This demonstration page uses our WeatherBlox Daily Observations layout. Learn more.

Left ArrowRight Arrow

Hourly Observations for September 24, 2018

Temp ( °F °C ) Dew Point ( °F °C ) Humidity (%) Winds ( mph kmh ) Pressure ( in mb ) Visibility ( mi km ) Precip ( " mm )
12:53 am 00:53 Clear 60 15.6 53 11.7 78 78 Calm 29.86 1011 10 16 0.00 0.00
1:53 am 01:53 Clear 57 13.9 52 11.1 83 83 NNW 3 6 29.86 1011 10 16 0.00 0.00
2:53 am 02:53 Clear 56 13.3 52 11.1 87 87 N 5 7 29.86 1011 10 16 0.00 0.00
3:53 am 03:53 Clear 54 12.2 51 10.6 90 90 Calm 29.86 1011 10 16 0.00 0.00
4:53 am 04:53 Clear 52 11.1 50 10 93 93 NNE 5 7 29.86 1011 10 16 0.00 0.00
5:53 am 05:53 Clear 51 10.6 49 9.4 92 92 N 5 7 29.86 1011 10 16 0.00 0.00
6:53 am 06:53 Clear 50 10 48 8.9 93 93 N 6 9 29.87 1012 10 16 0.00 0.00
7:53 am 07:53 Sunny 49 9.4 47 8.3 93 93 N 7 11 29.89 1012 10 16 0.00 0.00
8:53 am 08:53 Sunny 56 13.3 52 11.1 87 87 N 5 7 29.89 1012 10 16 0.00 0.00
9:53 am 09:53 Sunny 67 19.4 54 12.2 63 63 ESE 3 6 29.88 1012 10 16 0.00 0.00
12:53 pm 12:53 Sunny 83 28.3 50 10 32 32 S 8 13 29.83 1010 10 16 0.00 0.00
1:53 pm 13:53 Sunny 85 29.4 50 10 30 30 S 9 15 29.80 1009 10 16 0.00 0.00
2:53 pm 14:53 Sunny 86 30 50 10 29 29 S 9 15 29.78 1008 10 16 0.00 0.00
3:53 pm 15:53 Sunny 88 31.1 51 10.6 28 28 S 8 13 29.76 1008 10 16 0.00 0.00
4:53 pm 16:53 Sunny 88 31.1 51 10.6 28 28 SSE 9 15 29.75 1007 10 16 0.00 0.00
5:53 pm 17:53 Sunny 87 30.6 51 10.6 29 29 S 9 15 29.74 1007 10 16 0.00 0.00
6:53 pm 18:53 Sunny 86 30 51 10.6 30 30 SSE 7 11 29.74 1007 10 16 0.00 0.00
7:53 pm 19:53 Clear 78 25.6 53 11.7 42 42 SE 8 13 29.76 1008 10 16 0.00 0.00
8:53 pm 20:53 Clear 74 23.3 52 11.1 46 46 SE 8 13 29.78 1009 10 16 0.00 0.00
9:53 pm 21:53 Clear 75 23.9 52 11.1 45 45 SE 12 19 29.81 1009 10 16 0.00 0.00
10:53 pm 22:53 Clear 72 22.2 56 13.3 57 57 SE 9 15 29.81 1010 10 16 0.00 0.00
11:53 pm 23:53 Clear 70 21.1 57 13.9 64 64 ESE 10 17 29.80 1009 10 16 0.00 0.00

Powered by AerisWeather